Regional Weather Roundup
Issued by NWS

Home | Current Version | Previous Version | Text Only | Print | Product List | Glossary On
Versions: 1 2 3 4 5 6 7 8 9 10 11 12 13 14 15 16 17 18 19 20 21 22 23 24 25 26 27
000
ASUS43 KDMX 210207
RWRIA

WEATHER ROUNDUP FOR IOWA
NATIONAL WEATHER SERVICE DES MOINES IA
900 PM CDT SUN APR 20 2014

NOTE: "FAIR" INDICATES FEW OR NO CLOUDS BELOW 12,000 FEET WITH NO
SIGNIFICANT WEATHER AND/OR OBSTRUCTIONS TO VISIBILITY.

* - THESE STATIONS ARE NOT NWS STATIONS...THUS NOT UNDER NWS
QUALITY CONTROL.  THEY ALSO DO NOT REPORT WEATHER SUCH
AS PRECIPITATION OR FOG.

IAZ001>003-012>014-020>022-031>034-043>046-210300-
   NORTHWEST IOWA

CITY           SKY/WX    TMP DP  RH WIND       PRES   REMARKS
CARROLL *      MOCLDY    66  55  68 SW31G38   29.91S
CHEROKEE *     CLOUDY    68  55  64 NW6       29.90R THUNDER
DENISON *      CLOUDY    64  57  77 SE12      29.94S
LE MARS *      CLOUDY    68  57  68 SE7       29.89R
ORANGE CITY *  CLOUDY    64  55  72 S5        29.89R
SHELDON *      MOCLDY    68  54  60 S10       29.88R
SIOUX CITY     CLOUDY    67  55  65 SW13      29.89R
SPENCER        LGT RAIN  67  56  67 S16       29.89F
STORM LAKE *   CLOUDY    70  52  52 SW18G29   29.93R
$$

IAZ055>058-069>071-079>083-090>094-210300-
   SOUTHWEST IOWA

CITY           SKY/WX    TMP DP  RH WIND       PRES   REMARKS
ATLANTIC *     LGT RAIN  63  59  88 SW10      29.96R
AUDUBON *      PTCLDY    64  54  68 SW7       29.97S
CLARINDA *     CLOUDY    66  57  72 NW6G13    30.00R
COUNCIL BLFS * CLOUDY    63  59  88 SE8       29.95S
CRESTON *      MOCLDY    70  54  56 SW14      29.98R
HARLAN  *      CLOUDY    63  59  88 SW7       29.99R
LAMONI         MOCLDY    67  53  61 S7        29.98R
RED OAK *      DRIZZLE   63  61  94 E6        29.98S
SHENANDOAH *   CLOUDY    63  61  94 E8        29.99R
$$

IAZ047>049-059>061-072>074-084-210300-
   CENTRAL IOWA

CITY           SKY/WX    TMP DP  RH WIND       PRES   REMARKS
AMES           MOCLDY    71  52  50 S14       29.92R
ANKENY *       MOCLDY    73  52  46 S12       29.93S
CHARITON *     PTCLDY    68  50  52 S10       29.97R
DES MOINES     MOCLDY    71  52  50 S8        29.95R
GRINNELL*      MOCLDY    70  46  43 S12       29.96R
KNOXVILLE *    MOCLDY    70  48  46 S13       29.96R
MARSHALLTOWN   MOCLDY    69  51  52 S13       29.93R
NEWTON *       MOCLDY    68  48  49 S10       29.96R
PELLA *          N/A     71  48  45 S9        29.97R
PERRY *          N/A     72  52  49 W18       29.94R
$$

IAZ004>006-015-016-023>025-035-036-210300-
   NORTH CENTRAL IOWA

CITY           SKY/WX    TMP DP  RH WIND       PRES   REMARKS
ALGONA *       CLEAR     63  57  82 NE6       29.89R
CLARION *      LGT RAIN  64  61  88 SE13      29.92S
ESTHERVILLE    CLOUDY    66  58  75 S13       29.91R THUNDER
FORT DODGE *   CLOUDY    70  57  64 N5        29.90S
MASON CITY     CLOUDY    62  56  80 SE12      29.91F
FOREST CITY *  MOCLDY    61  55  82 E3        29.91R
IOWA FALLS *     N/A     70  54  56 S9        29.94R
$$

IAZ007>011-017>019-026>030-037>042-050>054-066-210300-
   NORTHEAST IOWA

CITY           SKY/WX    TMP DP  RH WIND       PRES   REMARKS
CEDAR RAPIDS   CLOUDY    66  48  52 S9        29.95S
CHARLES CITY * RAIN      61  54  77 N12       29.98R
CLINTON *      PTCLDY    70  45  40 S8        30.03S
DECORAH *      HVY RAIN  59  59 100 NW5       29.98R
DUBUQUE        PTCLDY    65  46  50 S12       29.97S
MONTICELLO *   CLEAR     66  48  52 S5        29.96S
OELWEIN *      PTCLDY   N/A N/A N/A S9        29.95R
WATERLOO       PTCLDY    71  49  45 MISG      29.92R
$$

IAZ064-065-067-068-078-210300-
   EAST CENTRAL IOWA

CITY           SKY/WX    TMP DP  RH WIND       PRES   REMARKS
DAVENPORT      MOCLDY    68  46  45 S8        29.99S
IOWA CITY      CLOUDY    68  49  50 S5        29.98S
MT. PLEASANT * CLOUDY    68  47  46 S7        29.99R
MUSCATINE *    CLOUDY    70  48  46 S8        29.98S
QUAD CITIES    MOCLDY    72  45  37 S8        29.98S
$$

IAZ062-063-075>077-085>089-095>099-210300-
   SOUTHEAST IOWA

CITY           SKY/WX    TMP DP  RH WIND       PRES   REMARKS
BURLINGTON     CLOUDY    69  48  47 S6        29.99S
FAIRFIELD *    CLOUDY    70  48  46 S7        29.98S
FORT MADISON * CLOUDY    70  48  46 S6        30.01S
KEOKUK *       MOCLDY    72  48  43 S6        29.99S
OSKALOOSA *      N/A     64  48  57 S8        29.97S
CENTERVILLE *  CLEAR     66  50  55 S7        30.01R
OTTUMWA        MOCLDY    65  46  50 S7        29.97R
WASHINGTON *   CLOUDY    68  48  49 S8        29.98S
$$

ABBREVIATIONS USED IN REMARKS
   TC - TEMPERATURES IN CELSIUS
  WCI - WIND CHILL INDEX
   HX - HEAT INDEX
  VSB - VISIBILITY
$$




USA.gov is the U.S. government's official web portal to all federal, state and local government web resources and services.